sat.trackr.live / text

‹ back to catalog

STARLINK-36260

NORAD 67732 · 2026-026M

PAYLOAD ACTIVE UNKNOWN

§ Identity

Operator
Country
US
Launch date
2026-02-11
Launch site
AFWTR
Launch vehicle
Mass (kg)
RCS (m²)

Purposes: comms

External: N2YO · Heavens-Above · Gunter

§ Orbital elements

Epoch: 2026-09-19T02:03:49.339008Z

Period
93.91 min
Inclination
97.2844°
Eccentricity
0.0000799
Mean motion
15.33442376 rev/d
Perigee alt
465.0 km
Apogee alt
466.1 km
Semi-major
6,843.7 km
B*
1.9554e-4
RAAN
313.9337°
Arg perigee
110.2039°
Mean anomaly
249.9289°
Rev number
3,376

§ Raw data

STARLINK-362601 67732U 26026M   26262.08598772  .00006242  00000+0  19554-3 0  99952 67732  97.2844 313.9337 0000799 110.2039 249.9289 15.33442376 33761

JSON: /api/v1/satellites/67732 · /tle

For live sub-satellite position, see the globe view (requires WebGL).

§ Visibility from observer

Set your observer location to see the next 7 days of passes ≥ 10°. The values pass through the URL so the page stays shareable.

No JS? Fill the form by hand. The geolocation button needs JavaScript.